Regional Weather Roundup
Issued by NWS

Home | Current Version | Previous Version | Text Only | Print | Product List | Glossary Off
Versions: 1 2 3 4 5 6 7 8 9 10 11 12 13 14 15 16 17 18 19 20 21 22 23 24 25 26 27 28 29 30 31 32 33 34 35 36 37 38 39 40 41 42 43 44 45 46 47 48 49 50

536
ASUS44 KLIX 230101
RWRLA
LOUISIANA WEATHER ROUNDUP
NATIONAL WEATHER SERVICE NEW ORLEANS LA
800 PM CDT MON SEP 22 2014

NOTE: "FAIR" INDICATES FEW OR NO CLOUDS BELOW 12,000 FEET WITH NO
      SIGNIFICANT WEATHER AND/OR OBSTRUCTIONS TO VISIBILITY.
      SKY/WX - SKY CONDITION AND SIGNIFICANT WEATHER.
      TMP - AIR TEMPERATURE.    DP   - DEWPOINT TEMPERATURE.
      RH  - RELATIVE HUMIDITY.  PRES - PRESSURE.
      HX  - HEAT INDEX.         WCI  - WIND CHILL INDEX.

*  THESE STATIONS ARE NOT NWS OR FAA STATIONS AND ARE NOT UNDER
   NWS QUALITY CONTROL.

LAZ040-048-061>063-065-066-069-230200-
SOUTHEAST LOUISIANA

CITY           SKY/WX    TMP DP  RH WIND       PRES   REMARKS
N.O. AUDUBON     N/A     82  63  53 MISG        N/A
N.O. INTL ARPT PTCLDY    83  59  44 NE21      30.01R
N.O. LAKEFRONT CLEAR     83  64  52 N21       30.02R
N.O. DOWNTOWN* FAIR      82  61  47 N9G20     30.01R
SLIDELL        CLEAR     74  63  68 N3        30.02R
BATON ROUGE    CLEAR     74  58  57 N3        30.04R
BOOTHVILLE     MOCLDY    83  74  74 NE9       29.99R
BELLE CHASSE   MOCLDY    80  66  62 NE7       30.00R
BOGALUSA*      FAIR      71  58  63 N3        30.05R
GALLIANO*      NOT AVBL
NEW ROADS*     FAIR      71  60  67 N6        30.05R
GONZALES*      FAIR      76  68  76 CALM      30.02R
HAMMOND*       NOT AVBL
HOUMA*         PTCLDY    78  60  53 N7        30.00R
PORT FOURCHON* CLOUDY    84  72  65 NE16      30.02R

$$

LAZ041-044-053-054-230200-
SOUTHWEST LOUISIANA

CITY           SKY/WX    TMP DP  RH WIND       PRES   REMARKS
LAKE CHARLES   CLEAR     79  65  62 NE12      30.03R
LAFAYETTE      CLEAR     76  58  53 N9        30.04R
PATTERSON      PTCLDY    79  70  73 N8        30.03R
SALT POINT       N/A     83  71  67 N6        29.99R
NEW IBERIA     CLEAR     77  60  55 N14       30.03R
CHENAULT AIRPK NOT AVBL

$$

LAZ027-028-230200-
CENTRAL LOUISIANA

CITY           SKY/WX    TMP DP  RH WIND       PRES   REMARKS
FORT POLK      NOT AVBL
ALEXANDRIA INT CLEAR     73  57  57 N6        30.06R
ALEXANDRIA     CLEAR     72  56  57 N3        30.07R

$$

LAZ001-002-230200-
NORTHWEST LOUISIANA

CITY           SKY/WX    TMP DP  RH WIND       PRES   REMARKS
SHREVEPORT     CLEAR     75  51  43 NE8       30.10R
BARKSDALE AFB  CLEAR     72  51  48 NE3       30.11R
DTN SHREVEPORT CLEAR     74  53  48 NE6       30.11R

$$

LAZ014-016-230200-
NORTHEAST LOUISIANA

CITY           SKY/WX    TMP DP  RH WIND       PRES   REMARKS
MONROE         CLEAR     71  52  50 N8        30.11S
TALLULAH       CLEAR     69  54  58 NE7       30.09R

$$




USA.gov is the U.S. government's official web portal to all federal, state and local government web resources and services.